sat.trackr.live / text

‹ back to catalog

STARLINK-36636

NORAD 67611 · 2026-018Y

PAYLOAD ACTIVE UNKNOWN

§ Identity

Operator
Country
US
Launch date
2026-01-29
Launch site
AFWTR
Launch vehicle
Mass (kg)
RCS (m²)

Purposes: comms

External: N2YO · Heavens-Above · Gunter

§ Orbital elements

Epoch: 2026-09-19T10:45:11.312640Z

Period
93.91 min
Inclination
97.2854°
Eccentricity
0.0000728
Mean motion
15.33454895 rev/d
Perigee alt
465.0 km
Apogee alt
466.0 km
Semi-major
6,843.7 km
B*
3.6646e-4
RAAN
325.8371°
Arg perigee
94.2876°
Mean anomaly
265.8450°
Rev number
3,702

§ Raw data

STARLINK-366361 67611U 26018Y   26262.44804760  .00011778  00000+0  36646-3 0  99902 67611  97.2854 325.8371 0000728  94.2876 265.8450 15.33454895 37029

JSON: /api/v1/satellites/67611 · /tle

For live sub-satellite position, see the globe view (requires WebGL).

§ Visibility from observer

Set your observer location to see the next 7 days of passes ≥ 10°. The values pass through the URL so the page stays shareable.

No JS? Fill the form by hand. The geolocation button needs JavaScript.